Probability
0 0 0 0 0 0 0 0 0 0 0 0 0 0 0 0 0 0 3 3 3 0 6 6 10 19 19 19 23 26 19 23 23 26 26 16 13 10 23 23 23 23 29 32
0 0 0 0 0 0 0 0 0 0 0 0 0 0 0 0 0 0 3 3 3 3 6 6 10 19 23 19 26 23 26 32 32 32 19 19 13 19 19 19 26 23 23 32
0 0 0 0 0 0 0 0 0 0 0 0 0 0 0 0 0 0 3 3 6 6 3 3 13 16 26 23 26 29 29 35 29 29 23 23 19 19 23 23 26 29 26 35
0 0 0 0 0 0 0 0 0 0 0 0 0 0 0 0 0 0 6 6 6 6 6 3 10 19 29 32 29 29 29 29 32 32 29 19 19 16 16 19 29 26 32 29
0 0 0 0 0 0 0 0 0 0 0 0 0 0 0 0 3 6 6 6 3 10 6 10 10 23 29 35 39 32 35 32 32 32 26 16 16 23 16 19 23 16 26 26
0 0 0 0 0 0 0 0 0 0 0 0 0 0 0 0 3 6 13 10 10 13 16 19 19 23 29 45 45 48 42 35 42 35 32 23 23 29 29 23 19 19 16 23
0 0 0 0 0 0 0 0 0 0 0 0 0 0 0 3 3 3 10 10 10 13 10 13 16 26 29 48 48 48 48 55 42 45 39 39 29 32 29 29 19 23 19 16
0 0 0 0 0 0 0 0 0 0 0 0 0 0 0 3 3 3 6 6 13 13 16 19 23 29 32 52 48 55 52 48 48 42 39 39 35 29 32 29 26 23 26 23
0 0 0 0 0 0 0 0 0 0 0 0 3 3 0 3 3 0 6 10 16 16 13 23 23 23 26 39 45 52 52 52 48 48 48 39 42 39 42 32 29 32 32 29
0 0 0 0 0 0 0 0 0 0 0 0 0 3 3 3 0 0 10 13 13 13 16 23 19 26 29 39 39 45 45 52 48 48 48 42 42 42 39 32 32 29 32 35
0 0 0 0 0 0 0 0 0 0 0 0 0 3 3 3 6 6 13 13 16 19 19 23 16 19 23 32 42 45 45 45 52 55 55 48 45 45 39 35 39 32 26 29
0 0 0 0 0 0 0 0 0 0 0 0 0 0 3 6 6 6 13 16 16 16 13 19 19 23 26 29 42 45 52 48 52 45 52 52 48 45 42 42 42 39 32 29
0 0 0 0 0 0 0 0 0 0 0 0 0 3 3 6 10 13 16 13 10 13 13 13 16 29 29 35 42 39 45 45 48 45 45 42 39 45 39 42 42 35 35 35
0 0 0 0 0 0 0 0 0 0 0 0 0 10 10 10 13 10 10 10 10 16 19 19 19 29 29 32 45 45 42 45 45 48 48 35 39 39 42 39 39 39 35 42
0 0 0 0 0 0 3 0 0 0 0 0 10 13 13 19 13 13 16 13 13 23 23 32 29 29 26 29 39 45 42 45 48 48 39 39 42 39 45 45 42 35 35 42
0 0 0 0 0 0 0 0 0 0 6 10 6 10 13 16 19 13 16 19 23 26 29 35 39 32 32 32 32 35 35 42 35 42 48 35 39 35 35 42 42 32 32 35
0 0 0 0 0 0 0 0 0 3 6 6 6 10 10 16 23 23 19 29 29 29 35 35 32 32 29 29 26 26 32 29 26 32 39 39 45 48 48 45 42 39 39 39
0 0 0 0 0 0 0 0 6 6 6 6 6 10 16 19 26 26 35 39 39 35 32 39 29 29 29 26 29 26 29 23 29 29 35 35 39 39 35 45 42 39 42 45
0 0 0 0 0 0 0 0 0 3 3 6 10 19 23 26 26 23 32 32 35 39 45 39 35 39 32 32 32 23 23 19 19 26 29 32 35 42 35 35 39 32 35 35
0 0 0 0 0 0 0 3 0 6 10 10 16 16 23 16 19 26 32 29 32 39 35 35 39 39 35 39 39 29 29 32 23 29 29 29 35 35 35 32 29 32 35 35
0 0 0 0 0 3 3 3 0 3 10 10 13 16 19 16 16 16 26 23 26 35 39 42 35 39 45 42 39 39 32 32 23 26 29 23 26 29 32 29 29 32 32 32
0 0 0 0 0 3 6 3 6 3 10 13 16 16 13 19 23 19 19 19 23 29 39 39 35 42 39 39 39 35 35 29 16 16 23 19 23 26 26 23 23 26 26 26
0 0 0 0 3 3 6 10 10 10 16 10 16 16 16 19 16 23 23 26 29 35 39 35 35 35 39 42 35 32 26 26 23 23 16 13 16 19 19 19 23 23 26 29
0 0 6 6 10 13 13 13 10 13 10 19 16 19 13 13 23 26 23 29 29 32 26 29 32 29 35 32 32 26 19 23 23 19 19 16 16 19 13 13 23 26 26 26
0 0 0 10 10 10 6 10 10 6 10 13 19 16 13 13 16 13 26 26 26 19 19 23 29 32 32 35 32 32 26 19 23 19 19 19 19 19 16 16 16 19 23 23
6 3 3 6 6 6 6 6 10 10 6 6 6 10 13 13 13 13 13 16 23 19 19 19 19 29 32 32 26 23 26 23 23 26 23 23 23 19 16 16 10 6 13 13
Height
5910 5912 5914 5915 5916 5917 5918 5918 5918 5918 5917 5918 5918 5917 5917 5917 5915 5914 5912 5910 5909 5908 5907 5906 5904 5903 5901 5900 5898 5897 5896 5895 5894 5894 5893 5893 5892 5892 5891 5891 5890 5890 5891 5891
5908 5910 5913 5913 5914 5916 5917 5918 5917 5917 5917 5917 5917 5917 5917 5916 5916 5915 5914 5912 5911 5910 5909 5907 5906 5904 5903 5901 5900 5899 5898 5897 5896 5895 5895 5894 5893 5893 5892 5892 5892 5892 5891 5891
5905 5909 5910 5911 5913 5914 5915 5916 5917 5917 5917 5916 5917 5916 5916 5915 5915 5915 5914 5914 5912 5911 5910 5909 5907 5906 5904 5903 5902 5900 5899 5898 5897 5897 5896 5895 5895 5894 5894 5893 5893 5892 5892 5892
5902 5905 5906 5908 5910 5912 5914 5915 5915 5915 5916 5915 5916 5915 5915 5914 5914 5914 5914 5914 5913 5912 5911 5910 5909 5907 5906 5905 5903 5902 5900 5899 5898 5898 5897 5896 5896 5895 5895 5894 5893 5893 5893 5892
5899 5902 5903 5905 5907 5910 5912 5913 5913 5914 5914 5914 5914 5914 5914 5913 5913 5913 5913 5913 5913 5912 5911 5910 5910 5909 5907 5906 5904 5903 5901 5900 5900 5898 5897 5897 5896 5896 5896 5895 5894 5894 5893 5893
5895 5898 5900 5902 5905 5906 5909 5911 5911 5911 5911 5912 5913 5913 5913 5912 5912 5912 5912 5912 5912 5912 5911 5911 5910 5909 5908 5907 5905 5903 5902 5901 5900 5899 5897 5897 5897 5897 5896 5895 5894 5894 5893 5893
5890 5893 5896 5899 5901 5903 5905 5907 5909 5908 5908 5909 5910 5910 5912 5911 5911 5911 5912 5912 5912 5911 5911 5910 5910 5909 5908 5906 5905 5904 5903 5902 5901 5900 5899 5898 5898 5897 5896 5895 5894 5893 5893 5892
5885 5889 5892 5895 5897 5899 5902 5904 5906 5906 5907 5907 5907 5907 5910 5909 5909 5910 5910 5910 5910 5910 5910 5909 5908 5908 5907 5906 5905 5904 5903 5902 5901 5900 5899 5898 5898 5897 5896 5895 5894 5893 5893 5892
5880 5885 5888 5890 5893 5896 5898 5900 5902 5903 5903 5903 5904 5905 5906 5906 5906 5907 5908 5908 5908 5908 5908 5908 5907 5907 5906 5905 5905 5904 5903 5902 5901 5900 5899 5898 5897 5897 5896 5895 5894 5893 5892 5891
5875 5879 5883 5886 5889 5891 5894 5896 5898 5899 5899 5900 5900 5902 5904 5904 5904 5906 5906 5906 5906 5906 5906 5906 5906 5906 5905 5904 5904 5903 5902 5901 5900 5900 5899 5898 5897 5896 5895 5894 5893 5893 5892 5890
5869 5873 5878 5881 5883 5886 5889 5891 5892 5894 5896 5896 5897 5901 5901 5902 5902 5903 5903 5903 5904 5904 5903 5903 5904 5904 5903 5902 5902 5902 5901 5900 5899 5898 5897 5897 5896 5895 5894 5893 5892 5892 5891 5890
5863 5866 5870 5875 5879 5881 5884 5886 5888 5890 5891 5892 5893 5898 5897 5898 5899 5899 5900 5900 5900 5901 5901 5900 5901 5901 5901 5901 5900 5900 5899 5899 5898 5896 5895 5895 5894 5894 5893 5892 5891 5890 5890 5889
5857 5860 5864 5868 5874 5876 5878 5880 5882 5885 5887 5888 5889 5893 5892 5894 5895 5895 5896 5896 5897 5897 5897 5897 5897 5898 5898 5898 5898 5897 5897 5896 5895 5894 5893 5892 5892 5891 5891 5890 5889 5889 5888 5887
5851 5854 5858 5862 5865 5869 5871 5874 5877 5879 5881 5883 5884 5887 5888 5889 5891 5892 5891 5892 5893 5893 5893 5894 5894 5894 5895 5895 5895 5895 5894 5893 5892 5891 5890 5889 5889 5888 5888 5888 5887 5887 5886 5885
5844 5847 5851 5855 5859 5862 5865 5868 5871 5873 5875 5877 5880 5881 5884 5884 5886 5888 5888 5888 5889 5890 5889 5889 5890 5891 5891 5892 5892 5891 5890 5890 5889 5888 5887 5886 5885 5885 5885 5884 5884 5884 5883 5883
5836 5840 5844 5848 5852 5855 5859 5862 5865 5867 5870 5871 5873 5876 5879 5880 5881 5883 5884 5884 5885 5886 5885 5885 5886 5887 5887 5888 5888 5887 5887 5886 5885 5884 5883 5882 5882 5882 5881 5881 5881 5880 5880 5879
5828 5832 5836 5840 5845 5848 5852 5856 5859 5861 5863 5865 5867 5870 5872 5874 5876 5878 5878 5880 5881 5881 5881 5881 5882 5883 5883 5884 5884 5883 5883 5882 5881 5880 5879 5879 5878 5878 5877 5877 5877 5876 5876 5875
5820 5824 5828 5832 5837 5840 5847 5850 5852 5854 5857 5859 5861 5864 5866 5869 5871 5872 5873 5875 5876 5877 5877 5878 5878 5878 5878 5879 5879 5879 5878 5877 5877 5876 5875 5875 5874 5873 5872 5872 5872 5871 5871 5870
5812 5816 5820 5824 5827 5832 5838 5842 5845 5847 5849 5852 5854 5857 5860 5862 5864 5866 5867 5868 5870 5871 5872 5874 5874 5874 5873 5873 5873 5874 5873 5873 5872 5872 5871 5870 5870 5869 5868 5868 5867 5866 5866 5865
5803 5807 5812 5815 5819 5823 5831 5835 5837 5841 5842 5846 5847 5850 5853 5855 5857 5860 5861 5863 5864 5866 5867 5868 5869 5869 5869 5869 5868 5868 5868 5868 5868 5867 5866 5865 5865 5864 5863 5863 5862 5861 5861 5860
5794 5798 5802 5806 5810 5815 5822 5826 5830 5833 5836 5839 5841 5843 5846 5848 5851 5853 5855 5856 5858 5859 5860 5861 5862 5862 5863 5863 5863 5863 5863 5862 5862 5862 5861 5860 5860 5859 5858 5857 5856 5855 5854 5853
5785 5789 5793 5797 5801 5809 5813 5816 5820 5823 5827 5830 5833 5836 5838 5841 5843 5845 5847 5849 5851 5852 5853 5854 5855 5856 5856 5857 5857 5857 5856 5856 5856 5855 5855 5855 5854 5853 5853 5852 5851 5850 5849 5848
5775 5780 5784 5789 5794 5799 5803 5807 5810 5814 5818 5822 5825 5828 5831 5833 5836 5838 5840 5842 5843 5844 5846 5847 5848 5848 5848 5849 5850 5850 5849 5849 5849 5849 5849 5848 5848 5847 5847 5846 5845 5844 5843 5842
5766 5770 5774 5778 5783 5789 5794 5797 5801 5805 5809 5813 5817 5820 5823 5825 5828 5830 5832 5834 5836 5837 5838 5839 5840 5840 5841 5842 5842 5842 5842 5841 5842 5842 5842 5842 5841 5841 5840 5839 5838 5838 5836 5835
5758 5761 5764 5768 5773 5778 5783 5788 5792 5796 5800 5804 5808 5811 5814 5816 5819 5821 5823 5825 5827 5829 5830 5831 5832 5833 5834 5834 5834 5834 5834 5834 5835 5835 5835 5835 5834 5834 5833 5832 5831 5830 5829 5828
5748 5751 5755 5759 5764 5768 5773 5777 5782 5786 5790 5794 5798 5801 5804 5807 5810 5812 5814 5816 5818 5820 5821 5823 5824 5825 5826 5826 5827 5827 5827 5827 5827 5828 5828 5828 5827 5827 5826 5825 5824 5823 5822 5820
Wind_Speed
14 13 10 8 6 4 1 1 4 4 4 4 5 6 7 9 9 10 11 12 12 14 15 15 14 13 13 12 12 11 11 10 10 9 9 8 8 7 7 7 7 6 5 5
16 13 12 11 8 6 5 3 5 8 6 6 5 5 7 7 7 8 9 10 11 12 14 14 13 13 12 12 12 11 11 10 10 9 8 8 8 7 7 6 6 5 5 5
15 13 14 14 12 10 8 5 6 8 7 7 5 6 6 5 7 8 8 9 10 12 13 12 13 13 13 11 11 11 11 10 10 9 8 7 7 7 6 6 5 5 5 5
17 16 16 16 15 13 11 7 8 9 9 8 8 8 8 5 6 7 7 7 8 10 10 10 11 12 12 11 10 10 10 9 9 8 7 7 6 6 6 5 4 5 5 4
19 19 19 18 17 15 13 10 11 11 11 10 9 8 8 8 7 6 5 5 7 7 7 8 9 10 10 10 10 9 8 8 8 8 7 6 6 5 5 5 4 4 4 3
22 21 20 19 18 16 15 15 13 12 13 12 9 8 8 10 8 4 3 4 5 6 6 6 6 7 8 9 9 8 7 7 7 7 7 7 6 5 4 4 4 4 4 3
23 23 21 21 20 19 18 17 16 15 14 12 9 8 7 9 7 4 2 3 5 6 5 5 5 5 6 7 7 7 6 5 5 6 6 6 6 5 5 4 4 4 3 3
24 23 22 22 21 21 21 19 18 16 14 13 12 10 8 9 8 7 4 3 4 5 5 4 5 4 4 5 6 6 6 5 5 5 5 5 5 4 4 4 4 3 3 3
23 23 22 22 22 21 21 20 19 17 15 14 14 13 10 9 8 7 5 6 6 6 5 4 4 4 4 4 5 5 4 4 4 4 5 5 4 4 4 4 4 4 3 3
23 23 23 23 23 23 22 20 20 20 18 17 15 13 11 9 8 6 6 7 6 7 7 5 4 4 4 4 4 3 3 4 4 4 4 4 4 4 4 4 4 4 3 3
24 25 25 26 26 25 23 23 22 22 20 19 18 15 13 11 10 9 7 7 8 8 8 6 6 5 5 4 4 3 3 4 4 4 4 4 4 4 4 4 4 4 3 3
27 27 27 27 27 26 25 24 24 24 23 22 22 20 16 15 13 11 9 7 8 9 8 9 7 6 6 6 5 5 5 5 5 6 5 5 5 6 5 5 5 4 4 3
29 29 29 29 29 28 28 26 26 26 25 25 24 21 18 17 14 13 11 10 10 10 9 10 9 9 8 8 7 7 7 8 8 8 7 7 7 7 7 6 6 5 4 4
30 31 32 31 30 29 29 28 27 28 27 26 25 23 21 20 17 15 13 12 12 12 11 11 11 10 10 9 9 9 9 10 10 9 9 10 9 9 8 7 7 7 6 6
32 34 34 33 31 30 30 29 28 28 28 28 27 25 23 21 19 17 15 14 14 13 12 10 10 10 10 10 10 11 11 12 11 11 11 12 11 10 9 9 9 9 9 9
34 35 36 35 34 33 32 31 29 27 27 28 28 26 23 21 21 19 17 15 14 14 13 10 10 10 11 11 12 13 13 13 13 12 12 12 11 11 11 11 11 11 11 11
36 37 37 37 36 34 34 31 29 29 28 29 30 28 25 24 23 21 20 18 16 15 14 13 12 13 13 14 14 14 14 14 14 13 13 13 13 14 14 14 14 13 14 14
38 38 38 37 37 37 34 32 30 30 30 30 30 29 28 26 25 23 22 21 19 16 15 15 14 15 15 15 15 15 15 15 15 14 14 14 14 14 13 14 16 16 16 16
38 38 38 38 39 38 36 34 32 31 31 30 30 29 28 27 27 24 23 22 20 19 17 17 16 17 17 16 16 16 16 16 15 15 15 15 15 15 15 15 16 16 17 17
40 40 39 38 40 40 36 35 34 33 34 32 32 30 29 28 27 26 25 24 22 21 19 19 19 19 19 18 18 18 17 17 16 16 16 15 15 15 16 17 17 18 19 20
39 40 40 39 40 39 37 36 36 37 35 33 33 31 31 30 29 27 27 26 25 23 23 22 21 20 20 20 20 19 19 18 17 16 16 17 17 17 18 18 18 19 20 21
39 40 40 40 40 39 37 37 38 38 36 35 34 33 31 30 30 30 29 28 27 25 25 24 23 23 22 22 21 21 20 19 19 19 18 18 18 18 19 19 19 20 20 20
40 41 40 40 40 38 37 39 38 37 37 36 35 34 32 31 31 31 30 29 29 28 27 26 26 25 24 23 23 23 22 21 21 21 21 20 20 21 21 21 21 21 21 21
40 40 41 40 39 38 37 37 38 38 37 36 35 35 34 33 33 32 32 31 30 29 30 29 27 26 25 25 25 25 25 24 23 23 23 23 22 22 22 21 21 22 22 22
39 40 41 41 39 39 39 38 38 38 37 37 37 36 35 34 33 32 33 34 32 31 30 30 29 28 27 26 26 25 25 25 25 24 24 24 24 23 23 24 24 24 24 24
37 39 41 41 40 40 39 40 39 39 39 38 37 36 34 33 33 34 34 34 35 34 32 31 31 29 28 28 27 27 26 26 26 25 24 24 24 25 25 25 25 25 26 26
Wind_Direction
196 191 187 187 189 173 170 326 325 334 341 332 3 31 31 31 35 43 45 48 47 46 46 48 50 48 50 55 59 61 61 67 73 77 77 75 73 77 90 100 105 114 119 121
206 200 191 196 202 202 222 263 297 308 310 313 343 2 3 23 25 32 39 42 49 42 37 41 46 47 48 53 55 56 60 66 71 73 72 71 73 75 81 91 102 105 109 106
211 205 203 199 202 214 222 249 274 287 292 305 319 332 345 15 18 21 26 33 40 39 36 36 40 44 45 49 52 53 57 63 68 70 68 67 72 77 82 82 84 85 94 86
212 208 211 206 203 215 226 239 262 269 281 296 306 310 327 344 8 25 27 25 28 30 33 35 37 38 38 39 47 52 55 58 58 61 64 65 67 77 76 78 80 78 74 75
210 211 215 213 207 214 225 241 246 246 255 269 279 293 323 334 342 3 12 11 14 18 28 33 30 29 31 32 34 44 52 56 56 56 59 61 68 70 63 61 68 70 65 56
213 213 218 217 214 217 221 230 235 241 251 257 261 280 312 324 326 349 15 360 351 1 8 20 18 16 21 25 31 40 49 56 52 49 52 53 64 68 57 54 51 53 50 46
216 216 217 217 216 217 220 226 231 237 253 262 259 264 293 311 308 320 348 344 335 338 345 353 5 8 8 15 25 29 38 45 42 43 42 46 55 58 56 50 36 40 45 43
219 217 217 219 222 219 220 226 232 240 254 260 257 263 281 293 286 292 305 309 319 318 321 330 343 353 0 9 9 14 24 28 30 32 34 34 39 40 37 34 26 25 26 29
221 217 217 217 219 218 220 227 232 241 251 259 260 262 275 284 277 281 296 304 309 310 304 305 318 326 335 340 345 354 8 15 19 21 24 23 20 16 13 13 12 20 21 21
224 220 216 217 220 222 223 225 231 237 243 254 259 263 264 276 273 267 279 302 302 304 300 285 295 305 314 325 329 333 349 359 354 356 3 5 3 0 358 355 357 359 5 10
225 225 218 217 219 222 222 224 230 235 240 249 255 260 265 266 265 263 275 296 302 299 296 296 292 295 301 308 311 308 319 329 328 326 332 330 329 329 336 335 334 338 341 347
225 227 225 221 222 223 223 225 228 234 237 245 252 260 264 265 266 267 276 288 301 297 296 298 290 285 287 290 289 289 297 300 302 298 297 304 308 306 310 317 316 317 324 328
226 227 226 223 223 223 224 226 230 234 238 242 248 257 258 260 259 265 274 282 290 292 289 288 290 291 284 283 282 284 284 285 292 291 290 291 294 294 294 306 309 301 304 310
227 226 225 223 223 225 227 229 231 233 237 239 244 250 256 260 260 261 268 274 282 283 282 285 286 286 280 276 278 281 282 285 285 285 286 283 281 283 281 290 298 297 296 300
228 228 227 226 224 226 230 230 231 235 236 239 243 249 252 257 263 263 265 271 278 282 276 274 279 283 276 274 278 279 281 286 291 293 289 282 282 279 272 276 285 286 288 290
229 230 229 228 227 228 230 232 235 237 237 239 242 244 247 252 257 260 262 269 275 276 274 266 271 276 273 274 278 282 284 286 287 288 291 282 290 288 280 274 280 280 282 284
230 231 231 230 228 230 229 230 234 236 238 240 241 242 245 249 256 259 261 267 272 271 270 268 273 272 272 274 278 283 285 285 286 285 286 286 287 287 282 278 278 276 277 279
230 231 232 230 228 229 228 227 230 233 237 240 242 245 247 251 255 260 261 263 267 267 273 273 270 273 274 276 279 283 285 285 286 288 287 288 285 282 279 277 276 274 273 275
230 231 233 232 229 230 228 228 229 233 237 238 241 244 248 251 252 255 262 264 265 262 266 271 271 271 274 277 280 282 281 282 283 285 287 289 286 284 280 278 277 276 274 273
230 231 232 233 232 231 229 228 230 233 236 237 240 243 247 250 253 257 261 261 262 263 264 267 269 270 271 272 274 274 274 277 280 279 282 286 286 285 285 283 280 279 277 274
229 231 232 233 234 233 230 228 230 234 237 238 241 243 249 250 255 258 259 261 262 264 262 263 264 266 267 268 268 269 270 273 276 276 277 280 284 287 287 287 285 281 279 275
230 231 233 235 237 235 232 230 231 235 237 238 241 244 247 247 251 255 258 261 263 262 260 261 262 263 264 266 268 270 269 270 271 274 277 278 282 284 285 286 287 286 285 283
231 233 234 236 237 237 235 233 232 234 236 238 241 244 244 245 248 252 255 258 261 263 261 260 261 263 262 263 267 269 269 268 269 271 274 277 280 281 282 283 283 284 283 284
230 233 235 237 237 236 235 234 232 233 235 237 239 242 244 244 247 250 254 257 260 262 261 260 261 263 263 263 264 267 268 267 267 270 273 275 278 281 282 282 282 283 284 284
232 233 236 238 239 239 236 234 234 233 233 237 238 240 242 245 248 251 253 255 257 259 258 259 261 263 264 264 264 265 267 269 269 269 271 273 274 277 280 281 283 285 285 286
232 235 238 238 239 239 237 234 234 235 236 237 239 240 241 244 247 250 251 254 255 256 257 258 260 261 262 262 264 264 266 268 270 270 271 272 275 277 279 281 282 283 284 286